Change the Weather History Date:

Saturday, March 30, 2013

  Actual Average Record
Temperature  
Mean Temperature 47 °F 53 °F  
Max Temperature 56 °F 64 °F 84 °F (1986)
Min Temperature 38 °F 42 °F 20 °F (1964)
Degree Days  
Heating Degree Days 18 13  
Month to date heating degree days 706 511  
Since 1 July heating degree days 3817 3807  
Cooling Degree Days 0 0  
Month to date cooling degree days 0 0  
Year to date cooling degree days 0 0  
Growing Degree Days 0 (Base 50)    
Moisture  
Dew Point 45 °F    
Average Humidity 83    
Maximum Humidity 100    
Minimum Humidity 66    
Precipitation  
Precipitation 0.47 in 0.15 in 1.46 in (1985)
Month to date precipitation 4.02 3.78  
Year to date precipitation 15.77 11.37  
Snow  
Snow 0.00 in 0.00 in 1.30 in (1987)
Month to date snowfall 0.7 0.6  
Since 1 July snowfall 6.8 9.1  
Snow Depth 0.00 in    
Sea Level Pressure  
Sea Level Pressure 30.08 in    
Wind  
Wind Speed 4 mph (ESE)    
Max Wind Speed 12 mph    
Max Gust Speed 14 mph    
Visibility 3 miles    
Events Fog , Rain    
T = Trace of Precipitation, MM = Missing Value Source: NWS Daily Summary

Daily Weather History Graph

Daily Weather History Graph

Search for Another Location

Airport or City:

Trip Planner

Search our weather history database for the weather conditions in past years. The results will help you decide how hot, cold, wet, or windy it might be!

Date:

Astronomy

Mar. 30, 2013 Rise Set
Actual Time 6:43 AM CDT 7:16 PM CDT
Civil Twilight 6:17 AM CDT 7:42 PM CDT
Nautical Twilight 5:46 AM CDT 8:13 PM CDT
Astronomical Twilight 5:15 AM CDT 8:44 PM CDT
Moon 11:16 PM CDT (3/30) 8:43 AM CDT (3/30)
Length of Visible Light 13h 24m
Length of Day
12h 32m
Waning Gibbous, 86% of the Moon is Illuminated
Mar 30
Waning Gibbous
Apr 2
Last Quarter
Apr 10
New
Apr 18
First Quarter
Apr 25
Full

Hourly Weather History & Observations

Time (CDT) Temp. Windchill Dew Point Humidity Pressure Visibility Wind Dir Wind Speed Gust Speed Precip Events Conditions
12:01 AM 46.4 °F - 44.6 °F 93% 30.20 in 3.0 mi Calm Calm - N/A   Clear
12:08 AM 44.6 °F - 44.6 °F 100% 30.20 in 1.8 mi Calm Calm - N/A   Clear
12:21 AM 42.8 °F - 41.0 °F 93% 30.20 in 0.2 mi Calm Calm - N/A Fog Fog
12:53 AM 39.9 °F - 39.0 °F 97% 30.20 in 0.2 mi Calm Calm - N/A Fog Fog
1:19 AM 39.2 °F - 37.4 °F 93% 30.20 in 0.2 mi Calm Calm - N/A Fog Fog
1:53 AM 39.0 °F - 37.9 °F 96% 30.21 in 0.2 mi Calm Calm - N/A Fog Fog
2:41 AM 41.0 °F - 41.0 °F 100% 30.20 in 0.5 mi Calm Calm - N/A Fog Fog
2:51 AM 42.8 °F - 41.0 °F 93% 30.20 in 2.0 mi Calm Calm - N/A   Overcast
2:53 AM 42.1 °F - 41.0 °F 96% 30.20 in 2.0 mi Calm Calm - N/A   Overcast
3:00 AM 42.8 °F - 41.0 °F 93% 30.20 in 1.5 mi Calm Calm - N/A   Overcast
3:17 AM 42.8 °F 41.1 °F 42.8 °F 100% 30.19 in 0.8 mi ENE 3.5 mph - N/A   Mist
3:30 AM 44.6 °F 43.1 °F 42.8 °F 93% 30.18 in 1.2 mi ENE 3.5 mph - N/A   Overcast
3:53 AM 44.1 °F - 43.0 °F 96% 30.18 in 2.0 mi Calm Calm - N/A   Overcast
4:53 AM 44.1 °F - 43.0 °F 96% 30.19 in 1.5 mi Calm Calm - N/A   Overcast
5:22 AM 44.6 °F 43.1 °F 42.8 °F 93% 30.18 in 0.8 mi ENE 3.5 mph - N/A   Overcast
5:49 AM 44.6 °F - 44.6 °F 100% 30.18 in 0.2 mi Calm Calm - N/A Fog Fog
5:53 AM 44.1 °F - 44.1 °F 100% 30.18 in 0.2 mi Calm Calm - N/A Fog Fog
6:07 AM 44.6 °F 42.2 °F 44.6 °F 100% 30.16 in 0.5 mi ENE 4.6 mph - N/A Fog Fog
6:30 AM 44.6 °F 43.1 °F 44.6 °F 100% 30.17 in 1.2 mi ENE 3.5 mph - N/A   Overcast
6:53 AM 45.0 °F - 44.1 °F 97% 30.17 in 1.5 mi Calm Calm - N/A   Overcast
7:04 AM 44.6 °F - 44.6 °F 100% 30.18 in 1.0 mi Calm Calm - N/A   Overcast
7:53 AM 46.0 °F 41.9 °F 45.0 °F 96% 30.18 in 1.0 mi ESE 8.1 mph - N/A   Overcast
8:23 AM 46.4 °F 42.4 °F 44.6 °F 93% 30.17 in 2.0 mi ESE 8.1 mph - N/A   Overcast
8:35 AM 46.4 °F 41.9 °F 44.6 °F 93% 30.17 in 2.5 mi ESE 9.2 mph - N/A   Overcast
8:51 AM 46.4 °F 41.5 °F 44.6 °F 93% 30.17 in 3.0 mi ESE 10.4 mph - N/A   Overcast
8:53 AM 46.9 °F - 45.0 °F 93% 30.17 in 3.0 mi ESE 10.4 mph - N/A   Overcast
9:53 AM 48.0 °F - 45.0 °F 89% 30.17 in 4.0 mi SE 5.8 mph - N/A   Overcast
10:32 AM 48.2 °F - 44.6 °F 87% 30.16 in 4.0 mi ESE 8.1 mph - N/A   Overcast
10:53 AM 50.0 °F - 45.0 °F 83% 30.15 in 5.0 mi ESE 8.1 mph - N/A   Haze
11:53 AM 52.0 °F - 45.0 °F 77% 30.13 in 7.0 mi SE 8.1 mph - N/A   Overcast
12:53 PM 54.0 °F - 45.0 °F 72% 30.10 in 8.0 mi SE 4.6 mph - N/A   Overcast
1:44 PM 55.4 °F - 46.4 °F 72% 30.07 in 9.0 mi SSE 9.2 mph - N/A   Mostly Cloudy
1:53 PM 55.0 °F - 45.0 °F 69% 30.07 in 9.0 mi SSE 5.8 mph - N/A   Scattered Clouds
2:53 PM 55.0 °F - 46.0 °F 72% 30.04 in 10.0 mi SSE 8.1 mph - N/A   Partly Cloudy
3:38 PM 53.6 °F - 46.4 °F 77% 30.03 in 10.0 mi SSE 6.9 mph - N/A   Mostly Cloudy
3:53 PM 54.0 °F - 46.0 °F 75% 30.02 in 9.0 mi South 9.2 mph - N/A   Overcast
4:53 PM 52.0 °F - 46.9 °F 83% 29.99 in 4.0 mi ESE 8.1 mph - 0.01 in Rain Light Rain
5:23 PM 51.8 °F - 48.2 °F 88% 29.98 in 2.5 mi SSE 5.8 mph - 0.04 in Rain Rain
5:35 PM 50.0 °F - 48.2 °F 94% 29.98 in 1.8 mi SE 6.9 mph - 0.09 in Rain Rain
5:41 PM 50.0 °F - 48.2 °F 94% 29.99 in 2.0 mi SE 6.9 mph - 0.11 in Rain Rain
5:53 PM 50.0 °F - 48.0 °F 93% 29.99 in 2.5 mi SE 4.6 mph - 0.13 in Rain Rain
6:53 PM 50.0 °F - 48.0 °F 93% 29.96 in 2.5 mi ESE 5.8 mph - 0.10 in Rain Light Rain
7:05 PM 50.0 °F - 48.2 °F 94% 29.96 in 3.0 mi ESE 5.8 mph - 0.01 in Rain Light Rain
7:28 PM 50.0 °F - 48.2 °F 94% 29.95 in 4.0 mi ESE 4.6 mph - 0.02 in Rain Light Rain
7:53 PM 50.0 °F - 48.0 °F 93% 29.95 in 4.0 mi East 3.5 mph - 0.03 in Rain Light Rain
8:19 PM 50.0 °F - 48.2 °F 94% 29.94 in 2.5 mi East 3.5 mph - 0.01 in Rain Light Rain
8:53 PM 50.0 °F - 48.9 °F 96% 29.94 in 1.8 mi NE 4.6 mph - 0.05 in Rain Rain
9:24 PM 48.2 °F - 48.2 °F 100% 29.95 in 1.5 mi North 5.8 mph - 0.10 in Rain Rain
9:53 PM 48.9 °F - 48.0 °F 97% 29.95 in 2.0 mi NE 4.6 mph - 0.14 in Rain Light Rain
10:31 PM 48.2 °F - 48.2 °F 100% 29.94 in 3.0 mi Calm Calm - 0.01 in   Overcast
10:48 PM 48.2 °F - 48.2 °F 100% 29.94 in 2.5 mi Calm Calm - 0.01 in   Overcast
10:53 PM 48.9 °F - 48.0 °F 97% 29.94 in 2.5 mi Calm Calm - 0.01 in   Overcast
11:09 PM 48.2 °F - 48.2 °F 100% 29.94 in 2.5 mi Calm Calm - N/A   Overcast
11:17 PM 48.2 °F - 48.2 °F 100% 29.93 in 3.0 mi Calm Calm - N/A   Overcast
11:32 PM 48.2 °F - 48.2 °F 100% 29.92 in 3.0 mi Calm Calm - N/A   Overcast
11:40 PM 48.2 °F - 48.2 °F 100% 29.92 in 3.0 mi Calm Calm - N/A   Overcast
11:49 PM 48.2 °F - 48.2 °F 100% 29.92 in 2.5 mi Calm Calm - N/A   Overcast
11:53 PM 48.9 °F - 48.0 °F 97% 29.92 in 2.5 mi Calm Calm - N/A   Overcast